Home   Weather   King's Lynn   Past weeks

Flag for United Kingdom Past Weather in King's Lynn, England, United Kingdom — Yesterday and Last 2 Weeks

Now
55 °F

Overcast.


Feels Like: 52 °F
Forecast: N/A
Wind: 15 mph from Southwest

Location: Marham

Current Time: Dec 9, 2016 at 7:32:23 pm

Latest Report: Dec 9, 2016 at 6:50 pm


Visibility: N/A

Pressure: 30.15 "Hg

Humidity: 82%

Dew Point: 50 °F

Location of King's LynnLocation

Past Weather in King's Lynn — Graph

°F

King's Lynn Temperature Yesterday

Maximum temperature yesterday: 57 °F (at 2:50 pm)
Minimum temperature yesterday: 46 °F (at 7:50 pm)
Average temperature yesterday: 51 °F

High & Low Weather Summary for the Past Weeks

 TemperatureHumidityPressure
High57 °F (Dec 8, 2:50 pm)100% (Nov 25, 9:50 pm)30.57 "Hg (Nov 25, 9:50 pm)
Low23 °F (Nov 30, 1:50 am)58% (Nov 28, 11:50 am)30.12 "Hg (Nov 26, 2:50 pm)
Average41 °F90%30.31 "Hg
* Reported Nov 24 5:50 pm — Dec 9 5:50 pm, King's Lynn, Weather by CustomWeather, © 2016

Note: Actual official high and low records may vary slightly from our data, if they occured in-between our weather recording intervals... More about our weather records

Advertising

King's Lynn Weather History for the Previous 24 Hours

Scroll right to see more
 ConditionsComfort  
Time TempWeatherWind HumidityBarometerVisibility
5:50 pm
Fri, Dec 9
55 °FOvercast.14 mph82%30.18 "HgN/A
4:50 pm55 °FOvercast.14 mph82%30.18 "HgN/A
3:50 pm55 °FClear.12 mph82%30.18 "Hg10 mi
2:50 pm55 °FSunny.15 mph88%30.18 "Hg10 mi
1:50 pm57 °FSunny.14 mph82%30.21 "Hg10 mi
12:50 pm55 °FSunny.16 mph88%30.21 "Hg10 mi
11:50 am55 °FSunny.15 mph88%30.21 "Hg10 mi
10:50 am54 °FBroken clouds.13 mph94%30.21 "HgN/A
9:50 am54 °FDrizzle. Broken clouds.13 mph94%30.21 "Hg4 mi
8:50 am54 °FPartly sunny.15 mph94%30.21 "Hg4 mi
7:50 am54 °FFog.12 mph94%30.21 "Hg2 mi
6:50 am54 °FFog.12 mph94%30.24 "Hg4 mi
5:50 am54 °FDrizzle. Low clouds.10 mph94%30.24 "Hg3 mi
4:50 am52 °FFog.9 mph100%30.24 "Hg4 mi
3:50 am52 °FFog.8 mph94%30.24 "Hg2 mi
2:50 am52 °FFog.6 mph94%30.27 "Hg2 mi
1:50 am50 °FFog.5 mph100%30.27 "Hg1 mi
12:50 am48 °FLow clouds.7 mph100%30.27 "Hg1 mi
11:50 pm
Thu, Dec 8
46 °FFog.6 mph93%30.27 "Hg1 mi
10:50 pm46 °FFog.6 mph100%30.27 "Hg1 mi
9:50 pm46 °FFog.6 mph93%30.27 "Hg2 mi
8:50 pm46 °FClear.3 mph93%30.27 "Hg10 mi
7:50 pm46 °FPassing clouds.6 mph93%30.27 "HgN/A
Weather by CustomWeather, © 2016

See weather overviewHow to use our weather pages